When you browse on this site, cookies collect data to enhance your experience and personalize the content and advertising you see.
Visit our Privacy Policy to learn more. By continuing to use the site, you agree to this use of cookies and data.
  • In Deutschland
  • Länderverzeichnis
  • Für 7 Tage
  • Wassertemperatur
  • Satellitenkarten
  • Wetterkarte
  • Widgets
  • user-avatar
    Anmelden

    Stündliche Wetter Betim

    Heute, 16 November, Freitag

    Zeit Temperatur Niederschläge Wind Luftdruck Luftfeuchtigkeit
    00:00 +23°C° 1.1 mm 1 m/S 687 mmHg 87%
    01:00 +23°C° 0.2 mm 1 m/S 688 mmHg 87%
    02:00 +23°C° 0.2 mm 1 m/S 688 mmHg 88%
    03:00 +23°C° 0 mm 1 m/S 688 mmHg 88%
    04:00 +23°C° 0.1 mm 1 m/S 688 mmHg 89%
    05:00 +23°C° 0.1 mm 1 m/S 688 mmHg 89%
    06:00 +23°C° 0.1 mm 1 m/S 688 mmHg 89%
    07:00 +24°C° 0.9 mm 2 m/S 689 mmHg 84%
    08:00 +26°C° 0.9 mm 2 m/S 689 mmHg 79%
    09:00 +27°C° 0 mm 3 m/S 690 mmHg 77%
    10:00 +28°C° 1.3 mm 3 m/S 690 mmHg 73%
    11:00 +29°C° 1.3 mm 2 m/S 690 mmHg 69%
    12:00 +30°C° 1.3 mm 2 m/S 689 mmHg 65%
    13:00 +29°C° 2.4 mm 2 m/S 689 mmHg 66%
    14:00 +29°C° 2.4 mm 2 m/S 689 mmHg 68%
    15:00 +29°C° 2.4 mm 2 m/S 688 mmHg 69%
    16:00 +28°C° 2.8 mm 2 m/S 688 mmHg 74%
    17:00 +26°C° 2.8 mm 3 m/S 688 mmHg 80%
    18:00 +25°C° 2.8 mm 3 m/S 688 mmHg 85%
    19:00 +24°C° 1.9 mm 3 m/S 688 mmHg 86%
    20:00 +23°C° 1.9 mm 4 m/S 689 mmHg 87%
    21:00 +22°C° 1.9 mm 4 m/S 690 mmHg 88%
    22:00 +22°C° 1 mm 4 m/S 690 mmHg 89%
    23:00 +22°C° 1 mm 3 m/S 690 mmHg 90%

    Morgen, 17 November, Samstag

    Zeit Temperatur Niederschläge Wind Luftdruck Luftfeuchtigkeit
    00:00 +21°C° 1 mm 3 m/S 690 mmHg 91%
    01:00 +21°C° 0.2 mm 3 m/S 690 mmHg 92%
    02:00 +21°C° 0.2 mm 3 m/S 689 mmHg 92%
    03:00 +21°C° 0.2 mm 2 m/S 689 mmHg 92%
    04:00 +21°C° 0 mm 2 m/S 689 mmHg 92%
    05:00 +21°C° 0 mm 2 m/S 689 mmHg 92%
    06:00 +21°C° 0 mm 2 m/S 690 mmHg 92%
    07:00 +21°C° 0 mm 2 m/S 690 mmHg 89%
    08:00 +22°C° 0 mm 3 m/S 690 mmHg 85%
    09:00 +24°C° 0 mm 3 m/S 691 mmHg 82%
    10:00 +25°C° 0 mm 3 m/S 691 mmHg 78%
    11:00 +26°C° 0 mm 3 m/S 691 mmHg 73%
    12:00 +27°C° 0 mm 3 m/S 691 mmHg 69%
    13:00 +27°C° 0 mm 3 m/S 690 mmHg 68%
    14:00 +27°C° 0 mm 3 m/S 690 mmHg 68%
    15:00 +27°C° 0 mm 3 m/S 689 mmHg 68%
    16:00 +26°C° 0 mm 3 m/S 689 mmHg 71%
    17:00 +25°C° 0 mm 3 m/S 689 mmHg 75%
    18:00 +24°C° 0 mm 2 m/S 689 mmHg 78%
    19:00 +24°C° 0 mm 3 m/S 689 mmHg 81%
    20:00 +22°C° 0 mm 3 m/S 690 mmHg 84%
    21:00 +21°C° 0 mm 3 m/S 690 mmHg 87%
    22:00 +21°C° 0 mm 3 m/S 690 mmHg 88%
    23:00 +20°C° 0 mm 3 m/S 690 mmHg 89%

    übermorgen, 18 November, Sonntag

    Zeit Temperatur Niederschläge Wind Luftdruck Luftfeuchtigkeit
    00:00 +20°C° 0 mm 3 m/S 690 mmHg 90%
    01:00 +20°C° 0 mm 3 m/S 690 mmHg 90%
    02:00 +20°C° 0 mm 3 m/S 689 mmHg 90%
    03:00 +20°C° 0 mm 3 m/S 689 mmHg 90%
    04:00 +20°C° 0 mm 3 m/S 689 mmHg 90%
    05:00 +20°C° 0 mm 3 m/S 689 mmHg 89%
    06:00 +20°C° 0 mm 3 m/S 689 mmHg 89%
    07:00 +21°C° 0 mm 3 m/S 690 mmHg 81%
    08:00 +24°C° 0 mm 3 m/S 691 mmHg 74%
    09:00 +26°C° 0 mm 4 m/S 692 mmHg 67%
    10:00 +27°C° 0 mm 4 m/S 691 mmHg 61%
    11:00 +28°C° 0 mm 4 m/S 691 mmHg 56%
    12:00 +29°C° 0 mm 4 m/S 691 mmHg 51%
    13:00 +29°C° 0 mm 4 m/S 690 mmHg 51%
    14:00 +30°C° 0 mm 3 m/S 689 mmHg 51%
    15:00 +30°C° 0 mm 3 m/S 688 mmHg 50%
    16:00 +28°C° 0 mm 3 m/S 688 mmHg 56%
    17:00 +27°C° 0 mm 3 m/S 688 mmHg 62%
    18:00 +25°C° 0 mm 2 m/S 688 mmHg 68%
    19:00 +25°C° 0 mm 2 m/S 688 mmHg 71%
    20:00 +24°C° 0 mm 3 m/S 689 mmHg 74%
    21:00 +22°C° 0 mm 3 m/S 689 mmHg 78%
    22:00 +22°C° 0 mm 3 m/S 689 mmHg 79%
    23:00 +21°C° 0 mm 3 m/S 689 mmHg 81%

    19 November, Montag

    Zeit Temperatur Niederschläge Wind Luftdruck Luftfeuchtigkeit
    00:00 +21°C° 0 mm 2 m/S 689 mmHg 82%
    01:00 +21°C° 0 mm 2 m/S 689 mmHg 84%
    02:00 +21°C° 0 mm 2 m/S 688 mmHg 86%
    03:00 +20°C° 0 mm 2 m/S 687 mmHg 88%
    04:00 +20°C° 0 mm 2 m/S 688 mmHg 88%
    05:00 +20°C° 0 mm 2 m/S 688 mmHg 89%
    06:00 +20°C° 0 mm 2 m/S 688 mmHg 90%
    07:00 +23°C° 0 mm 2 m/S 689 mmHg 82%
    08:00 +25°C° 0 mm 3 m/S 689 mmHg 75%
    09:00 +27°C° 0 mm 3 m/S 690 mmHg 67%
    10:00 +28°C° 0.2 mm 3 m/S 690 mmHg 64%
    11:00 +29°C° 0.2 mm 3 m/S 689 mmHg 60%
    12:00 +30°C° 0.2 mm 3 m/S 689 mmHg 57%
    13:00 +29°C° 0.9 mm 3 m/S 688 mmHg 60%
    14:00 +29°C° 0.9 mm 3 m/S 688 mmHg 64%
    15:00 +28°C° 0.9 mm 2 m/S 687 mmHg 67%
    16:00 +27°C° 1 mm 2 m/S 687 mmHg 72%
    17:00 +25°C° 1 mm 1 m/S 687 mmHg 78%
    18:00 +24°C° 1 mm 1 m/S 687 mmHg 84%
    19:00 +24°C° 0.4 mm 1 m/S 687 mmHg 84%
    20:00 +23°C° 0.4 mm 1 m/S 688 mmHg 85%
    21:00 +23°C° 0.4 mm 1 m/S 688 mmHg 86%
    22:00 +23°C° 0.6 mm 1 m/S 688 mmHg 87%
    23:00 +23°C° 0.6 mm 2 m/S 688 mmHg 87%

    20 November, Dienstag

    Zeit Temperatur Niederschläge Wind Luftdruck Luftfeuchtigkeit
    00:00 +21°C° 0.6 mm 2 m/S 688 mmHg 88%
    01:00 +21°C° 0.9 mm 2 m/S 688 mmHg 89%
    02:00 +21°C° 0.9 mm 2 m/S 687 mmHg 90%
    03:00 +21°C° 0.9 mm 2 m/S 687 mmHg 91%
    04:00 +21°C° 0.9 mm 2 m/S 688 mmHg 92%
    05:00 +21°C° 0.9 mm 2 m/S 688 mmHg 92%
    06:00 +21°C° 0.9 mm 2 m/S 689 mmHg 93%
    07:00 +22°C° 1.1 mm 1 m/S 689 mmHg 92%
    08:00 +22°C° 1.1 mm 1 m/S 690 mmHg 91%
    09:00 +22°C° 1.1 mm 1 m/S 690 mmHg 91%
    10:00 +22°C° 0.9 mm 1 m/S 690 mmHg 90%
    11:00 +22°C° 0.9 mm 1 m/S 690 mmHg 89%
    12:00 +23°C° 0.9 mm 1 m/S 690 mmHg 88%
    13:00 +22°C° 1.5 mm 1 m/S 689 mmHg 88%
    14:00 +22°C° 1.5 mm 1 m/S 689 mmHg 89%
    15:00 +22°C° 1.5 mm 1 m/S 688 mmHg 90%
    16:00 +22°C° 1.1 mm 1 m/S 689 mmHg 91%
    17:00 +22°C° 1.1 mm 1 m/S 689 mmHg 92%
    18:00 +21°C° 1.1 mm 1 m/S 689 mmHg 93%
    19:00 +21°C° 0.6 mm 1 m/S 690 mmHg 93%
    20:00 +21°C° 0.6 mm 1 m/S 690 mmHg 93%
    21:00 +21°C° 0.6 mm 1 m/S 690 mmHg 93%
    22:00 +21°C° 0.1 mm 1 m/S 690 mmHg 93%
    23:00 +20°C° 0.1 mm 1 m/S 690 mmHg 93%

    21 November, Mittwoch

    Zeit Temperatur Niederschläge Wind Luftdruck Luftfeuchtigkeit
    00:00 +20°C° 0.1 mm 1 m/S 690 mmHg 93%
    01:00 +20°C° 0.1 mm 1 m/S 690 mmHg 93%
    02:00 +20°C° 0.1 mm 1 m/S 689 mmHg 93%
    03:00 +19°C° 0.1 mm 2 m/S 689 mmHg 93%
    04:00 +19°C° 0 mm 2 m/S 689 mmHg 93%
    05:00 +19°C° 0 mm 2 m/S 690 mmHg 93%
    06:00 +19°C° 0 mm 2 m/S 690 mmHg 93%
    07:00 +20°C° 0.1 mm 2 m/S 690 mmHg 89%
    08:00 +21°C° 0.1 mm 2 m/S 691 mmHg 84%
    09:00 +22°C° 0.1 mm 3 m/S 691 mmHg 80%
    10:00 +24°C° 0.6 mm 3 m/S 691 mmHg 78%
    11:00 +25°C° 0.6 mm 2 m/S 691 mmHg 76%
    12:00 +25°C° 0.6 mm 2 m/S 691 mmHg 74%
    13:00 +25°C° 0.7 mm 2 m/S 690 mmHg 75%
    14:00 +25°C° 0.7 mm 1 m/S 690 mmHg 75%
    15:00 +25°C° 0.7 mm 1 m/S 689 mmHg 75%
    16:00 +24°C° 0.3 mm 1 m/S 689 mmHg 78%
    17:00 +23°C° 0.3 mm 1 m/S 689 mmHg 81%
    18:00 +22°C° 0.3 mm 1 m/S 689 mmHg 84%
    19:00 +22°C° 0.5 mm 1 m/S 690 mmHg 85%
    20:00 +20°C° 0.5 mm 2 m/S 690 mmHg 86%
    21:00 +20°C° 0.5 mm 2 m/S 691 mmHg 88%
    22:00 +20°C° 0.3 mm 2 m/S 690 mmHg 89%
    23:00 +19°C° 0.3 mm 3 m/S 690 mmHg 91%
    Mehr zeigen